TimeEST,TemperatureF,Dew PointF,Humidity,Sea Level PressureIn,VisibilityMPH,Wind Direction,Wind SpeedMPH,Gust SpeedMPH,PrecipitationIn,Events,Conditions,WindDirDegrees,DateUTC
12:51 AM,37.0,19.9,50,29.83,10.0,West,10.4,19.6,N/A,,Partly Cloudy,280,2012-12-23 05:51:00
1:51 AM,37.0,21.9,54,29.86,10.0,WNW,12.7,20.7,N/A,,Overcast,290,2012-12-23 06:51:00
2:51 AM,37.0,21.9,54,29.88,10.0,WNW,12.7,21.9,N/A,,Overcast,290,2012-12-23 07:51:00
3:51 AM,37.0,21.9,54,29.89,10.0,WNW,10.4,16.1,N/A,,Overcast,290,2012-12-23 08:51:00
4:51 AM,37.0,21.9,54,29.89,10.0,WNW,5.8,-,N/A,,Mostly Cloudy,290,2012-12-23 09:51:00
5:51 AM,36.0,21.9,57,29.91,10.0,WSW,8.1,-,N/A,,Clear,250,2012-12-23 10:51:00
6:51 AM,35.1,23.0,61,29.93,10.0,West,8.1,-,N/A,,Clear,270,2012-12-23 11:51:00
7:51 AM,35.1,21.9,59,29.95,10.0,West,10.4,18.4,N/A,,Clear,270,2012-12-23 12:51:00
8:51 AM,36.0,21.9,57,29.95,10.0,Variable,5.8,17.3,N/A,,Clear,0,2012-12-23 13:51:00
9:51 AM,37.0,21.9,54,29.94,10.0,Variable,5.8,18.4,N/A,,Partly Cloudy,0,2012-12-23 14:51:00
10:51 AM,39.0,21.9,50,29.94,10.0,Variable,6.9,16.1,N/A,,Partly Cloudy,0,2012-12-23 15:51:00
11:51 AM,39.0,23.0,53,29.91,10.0,West,6.9,-,N/A,,Clear,260,2012-12-23 16:51:00
12:51 PM,39.0,21.9,50,29.88,10.0,Variable,5.8,17.3,N/A,,Clear,0,2012-12-23 17:51:00
1:51 PM,41.0,19.9,43,29.86,10.0,WNW,5.8,-,N/A,,Clear,290,2012-12-23 18:51:00
2:51 PM,41.0,18.0,40,29.86,10.0,North,-9999.0,-,N/A,,Clear,0,2012-12-23 19:51:00
3:51 PM,41.0,14.0,33,29.86,10.0,West,6.9,17.3,N/A,,Clear,270,2012-12-23 20:51:00
4:51 PM,41.0,14.0,33,29.87,10.0,West,8.1,19.6,N/A,,Clear,260,2012-12-23 21:51:00
5:51 PM,39.9,16.0,38,29.88,10.0,Variable,6.9,-,N/A,,Clear,0,2012-12-23 22:51:00
6:51 PM,39.9,16.0,38,29.89,10.0,Variable,4.6,-,N/A,,Clear,0,2012-12-23 23:51:00
7:51 PM,39.9,17.1,40,29.91,10.0,Variable,5.8,-,N/A,,Clear,0,2012-12-24 00:51:00
8:51 PM,39.0,17.1,41,29.92,10.0,Variable,3.5,-,N/A,,Clear,0,2012-12-24 01:51:00
9:51 PM,39.0,18.0,43,29.93,10.0,Calm,Calm,-,N/A,,Clear,0,2012-12-24 02:51:00
10:51 PM,39.0,18.0,43,29.93,10.0,Variable,3.5,-,N/A,,Clear,0,2012-12-24 03:51:00
11:51 PM,37.0,19.0,48,29.95,10.0,Variable,4.6,-,N/A,,Clear,0,2012-12-24 04:51:00